Wind_Speed
18 17 16 17 18 16 16 17 17 16 16 15 14 14 13 12 12 11 11 10 9 9 8 8 8 8 9 9 10 10 10 11 11 11 11 12 12 12 13 13 12 12 11 11 11 10 10 10 9
16 16 16 18 17 14 15 17 17 16 16 15 15 14 13 13 12 11 10 9 8 8 8 8 8 8 8 9 9 10 10 10 10 10 11 11 11 12 12 12 11 11 11 10 10 10 9 9 9
16 16 16 17 15 15 16 16 16 17 16 15 15 14 13 12 12 10 9 9 8 7 7 7 7 8 8 8 9 9 9 9 10 10 10 11 11 11 11 10 10 10 10 10 9 9 9 9 8
16 16 17 15 15 16 16 16 17 16 16 15 14 14 13 12 11 10 9 9 8 7 6 7 7 7 7 8 8 8 8 9 9 9 10 10 10 10 10 9 9 9 9 9 9 9 8 9 8
15 16 15 14 15 16 16 16 16 16 16 15 14 14 13 12 11 10 9 8 7 6 6 6 6 6 6 7 7 7 8 8 8 9 9 9 8 8 9 8 9 9 8 8 8 8 8 8 8
15 15 13 13 14 15 15 15 16 16 16 15 15 14 13 12 11 10 9 8 7 6 6 5 6 6 6 7 7 7 7 7 8 8 8 8 8 8 8 8 8 8 8 8 8 8 7 7 7
16 14 13 13 14 14 15 15 16 16 16 16 15 14 13 13 11 10 9 8 7 6 6 5 5 6 6 6 6 6 6 6 7 7 7 8 7 7 7 7 7 7 7 7 7 7 7 7 7
14 14 12 13 13 14 14 15 16 16 16 16 15 15 14 13 12 10 9 8 7 6 6 5 5 5 6 6 6 6 6 6 6 6 7 7 6 6 7 7 7 6 6 6 6 6 7 6 6
14 13 11 12 13 13 14 14 15 15 16 16 16 15 14 13 12 10 9 8 8 7 6 6 5 5 5 6 6 6 6 6 6 6 5 5 5 5 5 5 5 5 5 6 6 6 6 6 5
12 10 10 11 12 13 13 14 14 15 15 15 15 14 14 13 12 10 9 9 8 7 6 6 6 5 5 5 6 5 5 5 5 4 4 4 4 4 3 3 4 4 4 5 5 5 5 5 5
10 10 10 11 12 12 13 14 14 14 15 14 14 14 14 13 12 11 10 9 9 8 7 6 6 6 5 5 5 5 5 5 4 4 3 3 3 3 3 3 3 3 4 4 4 4 4 4 4
9 9 9 10 10 11 12 12 14 14 14 13 13 13 13 13 13 12 10 10 10 9 8 6 6 6 6 6 6 6 5 5 4 3 3 2 2 2 2 2 3 3 3 3 4 4 4 4 4
8 8 8 8 9 10 11 12 12 13 13 13 12 13 13 14 13 13 12 10 10 9 8 7 7 7 6 6 6 6 5 4 3 2 2 3 2 2 1 1 2 2 3 4 4 4 4 4 4
7 7 6 8 8 9 10 11 12 12 12 13 12 13 13 13 12 12 12 11 10 9 10 9 7 7 6 6 6 5 5 4 3 2 2 1 1 1 1 0 0 1 2 3 4 4 4 4 4
6 6 5 6 7 8 9 10 11 11 12 12 12 12 12 12 12 12 12 11 11 10 10 9 9 8 7 6 6 6 6 4 4 3 2 1 1 1 1 1 1 1 2 2 3 4 4 4 4
6 5 3 4 5 5 7 8 9 9 10 11 12 11 11 11 11 11 11 11 11 10 10 9 9 8 8 7 6 6 6 5 4 4 3 2 1 0 1 1 2 2 3 3 4 4 4 5 5
6 5 4 2 3 3 5 5 7 8 9 10 11 11 11 11 11 11 11 11 11 11 11 10 9 8 8 7 7 7 7 6 5 5 5 4 3 2 2 2 3 3 4 4 5 5 6 6 6
9 7 5 3 2 2 3 3 5 7 8 9 10 10 10 10 10 10 10 11 11 10 11 10 9 10 9 8 8 7 7 7 6 6 5 5 5 4 3 3 3 4 5 5 5 6 7 8 8
11 9 7 5 3 1 0 2 4 5 6 8 9 9 10 10 10 10 10 10 10 11 11 10 10 10 10 8 8 8 7 7 7 6 6 6 6 5 5 4 4 5 6 6 7 8 8 9 10
12 10 8 7 4 3 2 2 3 5 6 7 8 9 9 9 10 9 9 9 10 11 11 10 11 10 10 9 8 8 9 8 8 8 7 6 6 7 6 6 6 7 7 7 8 8 9 9 11
15 12 11 9 6 5 4 4 5 5 6 7 7 7 8 9 9 9 9 9 10 10 10 10 10 10 10 9 9 9 9 9 9 8 7 6 7 7 8 8 7 7 7 8 8 9 9 9 10
17 14 13 11 8 7 5 4 8 6 6 6 6 7 8 8 9 9 9 9 9 9 9 10 11 11 11 9 9 9 9 10 9 8 7 7 7 7 8 9 9 8 8 8 8 9 10 10 11
19 16 14 13 10 9 8 5 7 7 6 6 6 7 8 8 8 9 9 9 8 8 9 10 11 11 11 10 9 9 9 9 9 8 8 7 7 8 8 9 10 10 10 9 9 9 10 11 11
20 18 16 14 12 11 10 7 7 8 7 7 7 7 8 9 9 8 9 8 8 9 10 10 11 12 12 11 10 9 9 9 9 9 9 8 8 8 9 10 10 11 11 10 9 9 10 11 12
22 20 17 15 14 13 11 9 8 8 7 7 7 7 8 9 9 8 8 8 8 9 10 11 12 12 11 11 10 10 9 9 10 10 9 9 8 9 10 10 11 11 11 11 10 10 10 11 11
23 22 19 16 14 14 14 11 9 9 8 8 8 8 9 9 9 8 8 8 8 10 11 12 11 11 11 11 10 10 9 9 9 10 9 9 10 10 10 11 11 12 11 12 12 11 10 11 11
25 24 21 18 16 15 15 12 10 10 10 9 9 9 8 8 8 8 8 8 9 10 11 11 11 11 11 10 9 9 8 9 9 9 9 10 11 12 12 12 12 12 12 12 12 12 11 11 12
27 25 23 20 18 16 15 13 11 11 11 11 10 9 9 9 8 8 8 9 9 10 11 11 11 10 10 9 9 9 9 9 9 9 10 11 12 12 12 13 13 12 12 12 12 12 12 12 12
28 27 25 23 20 17 14 14 14 13 13 13 12 11 10 9 9 9 9 9 10 10 10 10 10 10 10 9 9 10 10 10 10 10 11 11 12 13 13 13 13 13 13 13 13 12 12 12 12
29 28 27 25 23 20 16 15 15 14 14 14 13 12 11 10 10 10 10 9 9 10 10 10 10 10 10 10 10 10 10 11 11 11 12 12 13 13 14 14 14 13 14 13 14 13 13 13 13
Wind_Direction
76 74 76 75 73 78 81 81 78 76 77 78 79 78 77 78 79 80 79 77 74 75 77 78 80 83 86 88 90 93 93 92 92 91 92 93 94 95 97 96 98 100 103 104 105 106 105 106 107
76 74 74 73 76 79 79 80 77 75 76 77 77 75 73 72 72 74 75 75 72 71 75 78 79 84 88 90 92 93 94 93 92 92 95 95 95 96 97 97 98 99 102 105 108 108 106 109 111
77 74 72 74 79 82 82 80 77 75 74 75 74 71 68 66 67 69 70 70 66 66 73 78 79 82 86 90 92 94 95 94 93 94 98 99 99 98 98 99 99 101 103 106 108 106 105 108 110
75 73 70 73 76 78 78 78 75 73 72 72 72 69 65 62 61 63 63 63 61 62 70 77 82 83 86 90 92 94 94 94 95 96 99 100 100 102 102 102 102 103 104 107 108 107 107 109 110
73 71 69 70 73 74 75 74 73 72 69 67 67 66 65 61 60 59 59 59 59 60 67 76 80 82 86 90 91 93 95 95 96 97 99 102 102 103 105 106 105 104 107 108 109 110 110 109 110
75 71 71 73 74 73 73 73 71 69 66 63 62 63 62 60 58 58 57 58 59 60 66 74 80 82 87 90 91 93 96 96 97 99 99 101 104 106 107 109 110 109 109 110 113 114 114 112 112
80 76 75 73 73 72 72 69 67 65 63 61 59 59 58 59 58 58 57 58 60 62 66 69 75 79 86 91 91 90 93 98 99 98 99 100 100 105 108 112 114 113 113 113 115 117 119 118 116
81 75 72 73 74 73 71 68 65 63 61 59 56 56 55 56 57 57 58 58 59 62 66 68 67 73 81 86 88 89 89 97 101 102 101 101 99 105 110 114 116 116 115 118 120 123 122 122 121
83 78 76 77 78 75 71 68 65 63 59 55 54 54 51 53 56 57 58 57 56 62 68 69 67 70 77 83 86 87 88 95 101 101 98 101 102 106 114 113 118 120 121 126 128 128 127 126 127
88 86 81 79 80 77 72 68 64 60 56 53 51 51 50 52 55 57 58 55 54 62 68 68 69 69 70 75 82 85 91 96 100 104 102 99 99 104 119 124 125 127 128 133 138 139 137 136 136
90 92 85 78 76 74 69 65 62 58 54 51 49 49 50 51 53 55 56 53 52 58 63 67 69 70 68 70 76 75 82 89 96 105 115 112 105 108 118 129 137 133 135 140 148 153 151 151 151
97 94 86 79 76 71 68 63 59 56 52 49 47 47 49 48 48 50 51 52 52 56 60 66 68 69 65 62 64 66 71 80 90 99 108 120 120 106 103 122 139 152 156 161 164 169 170 167 165
106 99 90 85 80 71 67 62 58 54 49 47 47 47 48 47 46 47 48 50 51 51 53 54 59 60 59 57 57 61 66 71 79 94 97 106 107 110 115 128 150 173 175 180 184 183 183 184 186
121 107 95 88 82 76 67 60 56 51 47 47 48 46 46 45 44 44 44 45 48 48 48 48 48 47 51 52 50 52 51 53 56 74 95 98 90 86 106 94 168 196 198 195 197 200 202 205 205
136 116 100 91 85 80 69 58 54 49 46 47 47 45 43 40 40 40 40 40 42 44 45 47 43 41 41 41 40 42 40 35 34 38 52 65 68 65 48 11 292 249 238 233 227 221 218 223 224
161 137 119 98 88 83 73 59 51 46 44 43 42 41 38 33 32 32 33 33 33 35 36 39 38 34 28 25 29 33 30 26 21 19 16 21 16 346 309 311 303 300 275 265 250 241 233 230 232
182 171 180 146 106 93 78 59 44 40 38 37 33 31 28 25 25 25 25 26 26 26 25 27 31 26 19 16 18 22 17 12 12 7 0 358 346 322 306 288 301 301 287 269 254 246 245 241 241
201 196 206 203 160 104 71 45 27 25 27 26 23 20 17 17 19 18 19 19 18 19 17 17 19 17 15 13 12 12 5 1 5 1 352 344 337 324 314 296 294 292 284 270 258 251 247 248 247
211 204 216 225 210 194 21 6 360 4 7 9 10 8 6 9 11 12 13 10 12 11 11 11 11 6 3 3 6 5 357 352 354 349 347 339 336 330 324 311 304 296 290 276 266 261 260 257 252
215 215 225 231 229 235 255 297 322 338 348 351 354 356 360 1 4 6 6 3 2 6 10 8 7 2 359 356 352 352 354 350 347 340 343 347 339 334 332 325 315 303 297 286 273 267 265 263 259
219 220 230 242 248 243 243 275 296 313 325 333 342 348 351 352 351 353 352 353 356 360 7 8 5 4 1 354 350 348 347 347 345 341 334 336 336 335 334 334 326 314 304 295 286 276 276 273 267
224 224 230 241 244 248 236 249 285 300 312 318 327 340 342 342 344 342 340 343 350 357 0 0 359 356 355 352 350 348 350 350 346 342 335 332 332 330 331 331 330 325 314 305 297 288 283 281 277
224 226 232 240 244 246 250 236 267 285 295 301 312 324 331 337 340 338 336 339 341 350 350 348 346 347 348 352 355 354 352 352 352 347 344 336 332 331 329 329 328 327 319 309 298 287 281 281 279
224 228 234 241 244 242 248 243 252 270 279 287 297 309 317 325 333 332 333 333 334 339 340 339 338 339 341 344 347 348 347 348 346 341 338 334 331 328 328 328 327 327 325 321 312 296 288 283 277
224 227 233 238 241 244 247 245 246 257 265 276 287 298 306 314 324 325 326 329 331 333 332 331 332 334 338 342 342 339 339 340 342 340 338 333 330 330 329 328 326 326 327 322 315 305 296 291 283
225 226 228 233 239 248 249 243 248 253 258 269 281 289 300 307 318 324 322 322 328 331 330 329 331 332 334 339 341 338 335 337 339 340 341 340 339 339 335 331 327 325 325 320 315 309 300 294 289
227 227 229 235 237 238 249 250 246 247 254 264 274 285 293 301 309 314 316 320 323 325 327 328 330 330 332 336 338 339 337 337 337 338 338 338 338 336 333 330 328 327 325 322 315 311 304 297 292
228 229 230 228 233 236 247 251 244 242 250 259 269 279 285 293 301 306 310 317 323 324 325 327 330 330 331 329 333 335 335 331 332 335 336 338 338 336 332 327 326 326 326 324 318 311 307 301 295
228 230 231 230 232 233 242 251 245 242 247 255 263 270 277 285 293 301 309 314 320 323 324 323 328 329 328 327 326 331 331 330 330 330 334 337 337 336 334 331 328 325 323 321 316 312 307 303 301
230 232 232 232 235 234 232 246 245 241 246 252 257 262 268 279 289 296 303 307 314 320 324 325 324 328 328 328 325 326 328 328 327 329 330 330 330 330 329 329 329 327 324 322 319 315 310 306 304
Height
5914 5913 5913 5913 5914 5914 5912 5911 5909 5908 5907 5906 5905 5904 5903 5903 5903 5904 5900 5898 5898 5898 5897 5896 5896 5895 5894 5893 5893 5892 5892 5891 5891 5890 5890 5890 5890 5890 5890 5890 5890 5891 5891 5891 5892 5893 5893 5894 5894
5916 5916 5916 5916 5917 5916 5914 5913 5911 5910 5909 5907 5906 5905 5905 5904 5903 5902 5901 5900 5900 5899 5898 5898 5897 5896 5896 5895 5894 5894 5893 5893 5892 5892 5892 5891 5891 5891 5892 5892 5892 5892 5893 5893 5894 5894 5895 5895 5896
5919 5919 5919 5920 5919 5918 5917 5915 5913 5912 5911 5909 5908 5907 5907 5905 5904 5903 5902 5902 5901 5901 5900 5899 5898 5898 5897 5896 5896 5895 5895 5894 5894 5893 5893 5893 5893 5893 5893 5894 5894 5894 5894 5895 5895 5896 5896 5896 5897
5921 5922 5923 5924 5921 5920 5918 5917 5915 5914 5913 5911 5910 5909 5908 5907 5906 5905 5904 5903 5903 5902 5901 5900 5900 5899 5898 5898 5897 5897 5896 5896 5895 5895 5895 5895 5895 5895 5895 5895 5896 5896 5896 5896 5897 5897 5897 5898 5898
5923 5924 5926 5925 5923 5922 5921 5919 5917 5916 5914 5913 5912 5910 5909 5908 5907 5906 5905 5904 5904 5903 5903 5902 5901 5901 5900 5899 5898 5898 5897 5897 5897 5896 5896 5896 5896 5896 5897 5897 5897 5897 5897 5898 5898 5898 5899 5899 5899
5926 5928 5929 5927 5926 5924 5923 5921 5919 5918 5916 5915 5913 5912 5910 5909 5908 5907 5906 5906 5905 5905 5904 5903 5903 5902 5901 5900 5900 5899 5899 5898 5898 5898 5898 5898 5898 5898 5898 5898 5898 5899 5899 5899 5899 5899 5900 5900 5900
5929 5931 5930 5929 5928 5926 5925 5923 5921 5920 5918 5917 5915 5914 5912 5910 5910 5909 5908 5907 5906 5906 5905 5904 5904 5903 5902 5901 5901 5900 5900 5899 5899 5899 5899 5899 5899 5899 5899 5899 5899 5900 5900 5900 5900 5900 5901 5901 5901
5931 5933 5932 5931 5930 5928 5927 5925 5923 5922 5920 5919 5917 5916 5914 5913 5911 5910 5909 5908 5907 5907 5906 5905 5905 5904 5903 5903 5902 5901 5901 5900 5900 5900 5900 5900 5900 5899 5900 5900 5900 5901 5901 5901 5901 5902 5902 5902 5902
5932 5936 5935 5933 5932 5930 5929 5927 5926 5924 5922 5920 5919 5917 5916 5914 5913 5912 5911 5910 5909 5908 5907 5906 5906 5905 5904 5903 5903 5902 5902 5901 5901 5901 5901 5901 5901 5901 5901 5901 5901 5901 5902 5902 5902 5902 5902 5902 5903
5935 5937 5936 5934 5933 5932 5930 5929 5927 5926 5924 5922 5921 5919 5918 5916 5915 5914 5912 5911 5910 5909 5908 5907 5907 5906 5905 5904 5903 5903 5903 5903 5902 5902 5902 5902 5902 5901 5901 5902 5902 5902 5902 5902 5903 5903 5903 5903 5903
5936 5937 5936 5935 5934 5933 5932 5931 5929 5928 5926 5925 5923 5922 5920 5918 5917 5915 5914 5913 5912 5910 5909 5908 5908 5907 5906 5905 5905 5904 5904 5904 5903 5903 5903 5903 5902 5902 5902 5902 5902 5902 5902 5903 5903 5903 5903 5903 5904
5937 5937 5937 5937 5936 5935 5934 5932 5931 5930 5929 5927 5925 5924 5922 5920 5919 5917 5916 5915 5913 5912 5911 5910 5909 5908 5907 5906 5906 5905 5905 5904 5904 5903 5903 5903 5903 5903 5903 5902 5902 5902 5902 5902 5903 5903 5903 5903 5904
5939 5938 5938 5938 5937 5936 5935 5934 5933 5932 5930 5929 5927 5926 5924 5922 5921 5919 5918 5916 5915 5913 5912 5911 5910 5909 5908 5908 5907 5906 5906 5905 5905 5904 5903 5903 5903 5903 5903 5903 5902 5902 5902 5902 5902 5903 5903 5903 5904
5939 5939 5939 5939 5939 5938 5937 5936 5935 5933 5932 5930 5929 5928 5926 5925 5923 5921 5920 5918 5916 5915 5914 5912 5911 5910 5909 5909 5908 5907 5906 5906 5905 5904 5904 5903 5903 5903 5903 5903 5902 5902 5902 5902 5902 5902 5903 5903 5903
5939 5940 5941 5940 5940 5939 5939 5938 5936 5935 5933 5932 5931 5929 5928 5926 5925 5923 5922 5920 5918 5917 5915 5914 5913 5911 5910 5909 5908 5908 5907 5906 5906 5905 5904 5903 5903 5903 5902 5902 5902 5902 5902 5902 5901 5901 5902 5902 5903
5940 5942 5942 5941 5941 5940 5942 5941 5938 5936 5934 5933 5932 5931 5929 5928 5926 5925 5923 5921 5920 5918 5917 5915 5913 5912 5911 5910 5909 5908 5907 5906 5905 5905 5904 5903 5903 5902 5902 5902 5902 5901 5901 5901 5901 5901 5901 5901 5902
5940 5942 5943 5942 5942 5941 5941 5941 5939 5937 5936 5934 5933 5932 5931 5929 5928 5926 5924 5923 5921 5919 5918 5916 5914 5913 5912 5910 5909 5908 5907 5906 5905 5904 5903 5903 5902 5902 5901 5901 5901 5900 5900 5900 5900 5900 5900 5900 5901
5941 5942 5942 5942 5942 5942 5941 5941 5940 5938 5937 5935 5934 5933 5932 5930 5929 5927 5925 5923 5922 5920 5919 5917 5915 5913 5912 5910 5909 5908 5907 5906 5905 5904 5903 5902 5901 5901 5900 5900 5900 5899 5899 5899 5899 5899 5899 5899 5899
5938 5940 5941 5942 5942 5942 5942 5941 5940 5939 5938 5936 5935 5934 5932 5931 5930 5928 5926 5924 5922 5921 5919 5917 5916 5914 5912 5911 5909 5908 5907 5906 5905 5904 5903 5902 5901 5900 5900 5899 5899 5898 5898 5897 5897 5897 5897 5897 5897
5936 5938 5940 5940 5941 5941 5941 5941 5940 5939 5938 5937 5935 5934 5933 5932 5930 5928 5926 5924 5923 5922 5920 5918 5916 5914 5912 5910 5908 5908 5907 5906 5904 5903 5902 5901 5901 5900 5899 5898 5897 5897 5896 5896 5895 5895 5895 5895 5895
5933 5936 5938 5938 5939 5940 5941 5941 5940 5939 5938 5937 5935 5934 5933 5932 5930 5929 5927 5925 5924 5922 5920 5918 5916 5914 5912 5910 5908 5907 5907 5906 5904 5903 5902 5901 5900 5899 5898 5897 5896 5895 5894 5894 5893 5893 5893 5892 5892
5931 5933 5935 5936 5938 5939 5940 5943 5940 5939 5937 5936 5935 5934 5933 5932 5930 5929 5927 5925 5924 5922 5921 5919 5917 5915 5913 5910 5909 5908 5907 5905 5904 5902 5901 5900 5899 5898 5897 5896 5895 5893 5892 5892 5891 5891 5890 5890 5890
5928 5930 5932 5934 5936 5938 5938 5940 5942 5938 5937 5936 5935 5934 5933 5931 5930 5928 5927 5925 5924 5922 5921 5919 5917 5915 5913 5911 5909 5907 5906 5904 5903 5902 5901 5900 5899 5898 5896 5895 5893 5892 5891 5890 5889 5889 5888 5888 5887
5923 5927 5929 5931 5934 5936 5936 5938 5939 5937 5936 5935 5934 5933 5932 5931 5930 5928 5927 5925 5923 5922 5920 5919 5917 5915 5913 5911 5909 5907 5906 5904 5903 5902 5900 5899 5898 5896 5895 5894 5892 5891 5889 5888 5887 5886 5885 5885 5884
5920 5925 5928 5930 5932 5933 5933 5934 5936 5934 5934 5934 5933 5932 5931 5930 5929 5927 5926 5924 5923 5921 5920 5918 5916 5914 5912 5911 5908 5907 5905 5904 5902 5901 5899 5897 5896 5895 5894 5892 5891 5889 5887 5886 5885 5884 5883 5882 5881
5916 5921 5925 5928 5931 5932 5930 5931 5933 5932 5932 5932 5931 5931 5930 5929 5928 5926 5925 5924 5922 5921 5919 5917 5916 5914 5912 5910 5908 5906 5904 5903 5901 5900 5898 5896 5895 5894 5892 5891 5889 5888 5886 5884 5882 5881 5880 5879 5878
5912 5916 5920 5924 5926 5928 5928 5928 5929 5929 5929 5929 5929 5929 5928 5928 5927 5925 5924 5923 5922 5920 5919 5917 5915 5913 5911 5909 5907 5905 5904 5902 5901 5899 5897 5896 5894 5892 5891 5889 5887 5886 5884 5882 5880 5879 5877 5876 5875
5907 5911 5915 5918 5921 5924 5926 5926 5928 5927 5927 5927 5927 5927 5927 5926 5925 5924 5923 5922 5920 5919 5917 5916 5914 5912 5910 5908 5906 5905 5903 5901 5900 5898 5896 5894 5893 5891 5889 5887 5885 5884 5882 5880 5878 5876 5875 5874 5873
5902 5906 5909 5913 5916 5920 5924 5926 5923 5924 5924 5925 5925 5925 5924 5924 5923 5922 5921 5920 5919 5917 5916 5914 5913 5911 5909 5907 5905 5904 5902 5900 5899 5897 5895 5893 5891 5889 5887 5885 5883 5881 5879 5877 5875 5873 5872 5871 5870
5896 5900 5904 5909 5911 5914 5919 5924 5919 5920 5921 5921 5922 5922 5922 5922 5921 5920 5919 5918 5917 5916 5914 5913 5911 5909 5907 5906 5904 5902 5901 5899 5897 5895 5894 5892 5890 5888 5885 5883 5881 5879 5877 5875 5873 5871 5869 5868 5867